Location: Capelle
(50.3413°N, 1.9974°E)
Time: 14:24:28
(UTC+00:00)

SJ-7 - Pass Details

Date: 12 January 2026
Orbit: 495 x 520 km, 97.7° (Epoch: 16 February)

Event Time Altitude Azimuth Distance (km) Brightness Sun altitude
Rises 18:19:12 0° 167° (SSE) 2,644 7.8 -19.3°
Reaches altitude 10° 18:21:17 10° 168° (SSE) 1,761 6.9 -19.7°
Maximum altitude 18:25:06 81° 255° (WSW) 537 4.2 -20.3°
Drops below altitude 10° 18:28:56 10° 345° (NNW) 1,770 7.0 -20.9°
Sets 18:31:02 0° 346° (NNW) 2,661 7.9 -21.2°
